contact: severine.martini@mio.osupytheas.fr, dominique.lefevre@mio.osupytheas.fr
Project:EMSO Ligure-ouest http://www.emso-fr.org/EMSO-France
Sensor Optode, line 4330 Serial 272 
DOI : "https://doi.org/10.17882/97948" 
Title:EMSO Ligure Ouest : Data BathyDock capteur Optode - deploiement "2023-04-28"
Datetime,Profondeur,Latitude,Longitude,optode_type,serial,O2_concentration,O2_saturation,Temperature,Calibrated_Phase,Temp_Compensated_Phase,phase_blue_light,phase_red_light,Amplitude_blue_light,Amplitude_red_light,thermistor_bridge
time,m,degree_north,degree_east,1,1,umol.l-1,%,degree_C,degree,degree,degree,degree,mV,mV,mV
2023-12-06T00:00:07,2420,42.8014,5.9826,4330,272,186.333,57.073,13.313,36.046,36.626,41.218,4.591,295.7,544.9,291.1
2023-12-06T00:03:07,2420,42.8014,5.9826,4330,272,186.536,57.137,13.315,36.032,36.612,41.202,4.589,295.7,545.0,291.1
2023-12-06T00:06:07,2420,42.8014,5.9826,4330,272,186.509,57.124,13.311,36.036,36.616,41.206,4.590,295.7,545.0,291.2
2023-12-06T00:09:07,2420,42.8014,5.9826,4330,272,186.442,57.107,13.314,36.040,36.620,41.206,4.586,295.6,544.9,291.1
2023-12-06T00:12:07,2420,42.8014,5.9826,4330,272,186.521,57.131,13.314,36.034,36.614,41.207,4.593,295.7,544.9,291.1
2023-12-06T00:15:07,2420,42.8014,5.9826,4330,272,186.661,57.175,13.315,36.025,36.605,41.199,4.594,295.7,544.9,291.1
2023-12-06T00:18:07,2420,42.8014,5.9826,4330,272,186.234,57.043,13.313,36.053,36.633,41.230,4.597,295.7,545.0,291.1
2023-12-06T00:21:07,2420,42.8014,5.9826,4330,272,186.499,57.122,13.312,36.037,36.617,41.209,4.592,295.7,545.0,291.2
2023-12-06T00:24:07,2420,42.8014,5.9826,4330,272,186.285,57.057,13.312,36.050,36.630,41.213,4.583,295.7,545.0,291.2
2023-12-06T00:27:07,2420,42.8014,5.9826,4330,272,186.351,57.075,13.311,36.046,36.626,41.219,4.593,295.7,545.0,291.2
2023-12-06T00:30:07,2420,42.8014,5.9826,4330,272,186.348,57.079,13.314,36.045,36.625,41.211,4.586,295.7,544.9,291.1
2023-12-06T00:33:07,2420,42.8014,5.9826,4330,272,186.343,57.075,13.313,36.046,36.626,41.213,4.587,295.7,544.9,291.1
2023-12-06T00:36:07,2420,42.8014,5.9826,4330,272,186.521,57.128,13.311,36.036,36.616,41.207,4.592,295.8,544.9,291.2
2023-12-06T00:39:07,2420,42.8014,5.9826,4330,272,186.379,57.082,13.310,36.045,36.625,41.217,4.592,295.7,545.0,291.2
2023-12-06T00:42:07,2420,42.8014,5.9826,4330,272,186.439,57.101,13.310,36.041,36.621,41.209,4.588,295.7,544.9,291.2
2023-12-06T00:45:07,2420,42.8014,5.9826,4330,272,186.353,57.072,13.308,36.048,36.628,41.218,4.591,295.7,544.9,291.3
2023-12-06T00:48:07,2420,42.8014,5.9826,4330,272,186.411,57.092,13.310,36.043,36.623,41.210,4.587,295.7,544.9,291.2
2023-12-06T00:51:07,2420,42.8014,5.9826,4330,272,186.316,57.063,13.310,36.049,36.629,41.214,4.584,295.7,544.9,291.2
2023-12-06T00:54:08,2420,42.8014,5.9826,4330,272,186.392,57.089,13.312,36.044,36.624,41.213,4.589,295.6,545.0,291.2
2023-12-06T00:57:07,2420,42.8014,5.9826,4330,272,186.575,57.146,13.312,36.032,36.612,41.200,4.588,295.8,544.9,291.2
2023-12-06T01:00:08,2420,42.8014,5.9826,4330,272,186.309,57.061,13.310,36.050,36.630,41.219,4.589,295.7,545.0,291.2
2023-12-06T01:03:07,2420,42.8014,5.9826,4330,272,186.533,57.131,13.311,36.035,36.615,41.206,4.591,295.8,544.9,291.2
2023-12-06T01:06:08,2420,42.8014,5.9826,4330,272,186.675,57.173,13.309,36.026,36.606,41.196,4.590,295.8,545.0,291.2
2023-12-06T01:09:08,2420,42.8014,5.9826,4330,272,186.324,57.066,13.310,36.049,36.629,41.217,4.588,295.8,544.9,291.2
2023-12-06T01:12:08,2420,42.8014,5.9826,4330,272,186.557,57.138,13.310,36.033,36.613,41.203,4.590,295.7,544.9,291.2
2023-12-06T01:15:08,2420,42.8014,5.9826,4330,272,186.388,57.084,13.309,36.045,36.625,41.215,4.590,295.7,545.0,291.3
2023-12-06T01:18:07,2420,42.8014,5.9826,4330,272,186.314,57.064,13.311,36.049,36.629,41.219,4.590,295.7,544.9,291.2
2023-12-06T01:21:07,2420,42.8014,5.9826,4330,272,186.422,57.093,13.308,36.043,36.623,41.213,4.590,295.7,545.0,291.3
2023-12-06T01:24:07,2420,42.8014,5.9826,4330,272,186.355,57.072,13.307,36.048,36.628,41.212,4.583,295.7,545.0,291.3
2023-12-06T01:27:07,2420,42.8014,5.9826,4330,272,186.570,57.141,13.310,36.033,36.613,41.203,4.590,295.8,545.0,291.2
2023-12-06T01:30:07,2420,42.8014,5.9826,4330,272,186.547,57.135,13.311,36.034,36.614,41.206,4.592,295.7,544.9,291.2
2023-12-06T01:33:07,2420,42.8014,5.9826,4330,272,186.639,57.162,13.310,36.029,36.609,41.199,4.591,295.7,545.0,291.2
2023-12-06T01:36:07,2420,42.8014,5.9826,4330,272,186.695,57.179,13.310,36.024,36.605,41.199,4.595,295.7,545.0,291.2
2023-12-06T01:39:07,2420,42.8014,5.9826,4330,272,186.448,57.107,13.312,36.039,36.619,41.206,4.587,295.6,544.9,291.1
2023-12-06T01:42:08,2420,42.8014,5.9826,4330,272,186.454,57.106,13.310,36.040,36.620,41.211,4.591,295.7,545.0,291.2
2023-12-06T01:45:08,2420,42.8014,5.9826,4330,272,186.523,57.126,13.309,36.036,36.616,41.203,4.587,295.6,545.0,291.2
2023-12-06T01:48:08,2420,42.8014,5.9826,4330,272,186.605,57.152,13.310,36.030,36.611,41.204,4.594,295.6,544.9,291.2
2023-12-06T01:51:08,2420,42.8014,5.9826,4330,272,186.490,57.116,13.309,36.038,36.618,41.204,4.586,295.6,544.9,291.2
2023-12-06T01:54:07,2420,42.8014,5.9826,4330,272,186.551,57.134,13.309,36.034,36.614,41.204,4.589,295.7,544.9,291.3
2023-12-06T01:57:07,2420,42.8014,5.9826,4330,272,186.506,57.124,13.312,36.035,36.616,41.210,4.594,295.7,544.9,291.2
2023-12-06T02:00:07,2420,42.8014,5.9826,4330,272,186.459,57.114,13.315,36.037,36.617,41.209,4.592,295.7,545.0,291.0
2023-12-06T02:03:08,2420,42.8014,5.9826,4330,272,186.368,57.081,13.312,36.045,36.625,41.211,4.586,295.8,544.9,291.2
2023-12-06T02:06:08,2420,42.8014,5.9826,4330,272,186.496,57.121,13.312,36.037,36.617,41.215,4.598,295.6,544.9,291.2
2023-12-06T02:09:07,2420,42.8014,5.9826,4330,272,186.539,57.131,13.310,36.034,36.614,41.205,4.590,295.7,545.0,291.2
2023-12-06T02:12:07,2420,42.8014,5.9826,4330,272,186.230,57.036,13.309,36.055,36.635,41.223,4.588,295.7,545.0,291.3
2023-12-06T02:15:07,2420,42.8014,5.9826,4330,272,186.505,57.125,13.312,36.035,36.615,41.206,4.591,295.7,545.0,291.1
2023-12-06T02:18:07,2420,42.8014,5.9826,4330,272,186.509,57.126,13.313,36.035,36.615,41.204,4.589,295.7,544.8,291.1
2023-12-06T02:21:07,2420,42.8014,5.9826,4330,272,186.521,57.129,13.312,36.034,36.614,41.207,4.592,295.7,544.9,291.2
2023-12-06T02:24:08,2420,42.8014,5.9826,4330,272,186.404,57.094,13.313,36.042,36.622,41.217,4.595,295.6,544.9,291.1
2023-12-06T02:27:08,2420,42.8014,5.9826,4330,272,186.592,57.150,13.312,36.031,36.611,41.203,4.592,295.6,544.9,291.2
2023-12-06T02:30:08,2420,42.8014,5.9826,4330,272,186.443,57.106,13.313,36.039,36.619,41.210,4.591,295.7,544.9,291.1
2023-12-06T02:33:07,2420,42.8014,5.9826,4330,272,186.584,57.150,13.314,36.030,36.610,41.200,4.590,295.7,544.9,291.1
2023-12-06T02:36:07,2420,42.8014,5.9826,4330,272,186.557,57.140,13.312,36.033,36.613,41.201,4.588,295.7,544.9,291.2
2023-12-06T02:39:07,2420,42.8014,5.9826,4330,272,186.299,57.063,13.314,36.049,36.629,41.214,4.585,295.7,544.9,291.1
2023-12-06T02:42:07,2420,42.8014,5.9826,4330,272,186.339,57.084,13.320,36.042,36.622,41.208,4.585,295.7,544.9,290.9
2023-12-06T02:45:07,2420,42.8014,5.9826,4330,272,186.263,57.052,13.313,36.051,36.631,41.217,4.587,295.8,544.9,291.1
2023-12-06T02:48:08,2420,42.8014,5.9826,4330,272,186.377,57.086,13.313,36.044,36.624,41.212,4.588,295.7,544.9,291.1
2023-12-06T02:51:08,2420,42.8014,5.9826,4330,272,186.241,57.044,13.313,36.053,36.633,41.219,4.586,295.7,544.9,291.1
2023-12-06T02:54:08,2420,42.8014,5.9826,4330,272,186.653,57.172,13.314,36.025,36.606,41.197,4.592,295.7,544.9,291.1
2023-12-06T02:57:08,2420,42.8014,5.9826,4330,272,186.493,57.121,13.313,36.037,36.617,41.207,4.590,295.7,544.9,291.1
2023-12-06T03:00:07,2420,42.8014,5.9826,4330,272,186.310,57.066,13.313,36.048,36.628,41.217,4.589,295.7,544.9,291.1
2023-12-06T03:03:07,2420,42.8014,5.9826,4330,272,186.139,57.010,13.311,36.060,36.640,41.230,4.590,295.7,544.9,291.2
2023-12-06T03:06:07,2420,42.8014,5.9826,4330,272,186.458,57.111,13.314,36.038,36.618,41.212,4.594,295.7,545.0,291.1
2023-12-06T03:09:07,2420,42.8014,5.9826,4330,272,186.492,57.126,13.317,36.034,36.614,41.201,4.586,295.7,544.9,291.0
2023-12-06T03:12:07,2420,42.8014,5.9826,4330,272,186.185,57.029,13.315,36.055,36.635,41.224,4.589,295.8,544.9,291.1
2023-12-06T03:15:08,2420,42.8014,5.9826,4330,272,186.376,57.089,13.316,36.043,36.623,41.214,4.591,295.8,545.0,291.0
2023-12-06T03:18:08,2420,42.8014,5.9826,4330,272,186.204,57.034,13.314,36.055,36.635,41.224,4.589,295.7,544.9,291.1
2023-12-06T03:21:08,2420,42.8014,5.9826,4330,272,186.321,57.075,13.318,36.045,36.625,41.213,4.588,295.6,544.9,291.0
2023-12-06T03:24:08,2420,42.8014,5.9826,4330,272,186.301,57.071,13.320,36.046,36.625,41.216,4.591,295.7,544.9,290.9
2023-12-06T03:27:07,2420,42.8014,5.9826,4330,272,186.413,57.103,13.318,36.039,36.619,41.213,4.594,295.7,544.9,291.0
2023-12-06T03:30:07,2420,42.8014,5.9826,4330,272,186.552,57.147,13.319,36.030,36.610,41.201,4.591,295.8,544.9,290.9
2023-12-06T03:33:07,2420,42.8014,5.9826,4330,272,186.189,57.035,13.318,36.054,36.634,41.225,4.591,295.8,544.9,291.0
2023-12-06T03:36:07,2420,42.8014,5.9826,4330,272,186.167,57.028,13.318,36.055,36.635,41.228,4.593,295.7,544.8,291.0
2023-12-06T03:39:07,2420,42.8014,5.9826,4330,272,186.167,57.029,13.319,36.054,36.634,41.223,4.589,295.7,544.9,290.9
2023-12-06T03:42:07,2420,42.8014,5.9826,4330,272,186.493,57.131,13.320,36.033,36.613,41.202,4.589,295.8,544.8,290.9
2023-12-06T03:45:08,2420,42.8014,5.9826,4330,272,186.287,57.063,13.317,36.048,36.628,41.218,4.590,295.8,544.9,291.0
2023-12-06T03:48:08,2420,42.8014,5.9826,4330,272,186.170,57.029,13.318,36.055,36.635,41.222,4.587,295.8,544.9,291.0
2023-12-06T03:51:08,2420,42.8014,5.9826,4330,272,186.271,57.056,13.315,36.050,36.630,41.223,4.593,295.7,544.9,291.1
2023-12-06T03:54:07,2420,42.8014,5.9826,4330,272,186.447,57.115,13.319,36.037,36.617,41.208,4.591,295.7,544.9,290.9
2023-12-06T03:57:07,2420,42.8014,5.9826,4330,272,186.353,57.086,13.319,36.042,36.622,41.206,4.584,295.7,545.0,290.9
2023-12-06T04:00:07,2420,42.8014,5.9826,4330,272,186.380,57.093,13.317,36.041,36.621,41.204,4.583,295.8,544.9,291.0
2023-12-06T04:03:07,2420,42.8014,5.9826,4330,272,186.376,57.097,13.322,36.039,36.619,41.209,4.590,295.7,544.9,290.8
2023-12-06T04:06:07,2420,42.8014,5.9826,4330,272,186.186,57.044,13.326,36.050,36.630,41.219,4.589,295.7,544.9,290.7
2023-12-06T04:09:07,2420,42.8014,5.9826,4330,272,186.250,57.065,13.327,36.045,36.625,41.215,4.590,295.8,544.9,290.7
2023-12-06T04:12:07,2420,42.8014,5.9826,4330,272,186.066,57.004,13.323,36.059,36.639,41.229,4.589,295.7,544.8,290.8
2023-12-06T04:15:07,2420,42.8014,5.9826,4330,272,186.312,57.083,13.326,36.042,36.622,41.213,4.591,295.7,544.8,290.7
2023-12-06T04:18:07,2420,42.8014,5.9826,4330,272,186.178,57.034,13.320,36.053,36.633,41.225,4.592,295.8,544.8,290.9
2023-12-06T04:21:07,2420,42.8014,5.9826,4330,272,186.225,57.049,13.320,36.050,36.630,41.217,4.587,295.8,544.9,290.9
2023-12-06T04:24:08,2420,42.8014,5.9826,4330,272,186.327,57.075,13.316,36.046,36.626,41.218,4.592,295.7,544.8,291.0
2023-12-06T04:27:08,2420,42.8014,5.9826,4330,272,186.425,57.104,13.316,36.039,36.620,41.215,4.595,295.7,544.9,291.0
2023-12-06T04:30:08,2420,42.8014,5.9826,4330,272,186.445,57.112,13.317,36.037,36.617,41.209,4.591,295.8,544.9,291.0
2023-12-06T04:33:07,2420,42.8014,5.9826,4330,272,186.208,57.038,13.316,36.053,36.633,41.224,4.590,295.8,544.8,291.0
2023-12-06T04:36:07,2420,42.8014,5.9826,4330,272,186.163,57.031,13.321,36.054,36.634,41.223,4.589,295.8,544.9,290.9
2023-12-06T04:39:07,2420,42.8014,5.9826,4330,272,186.454,57.120,13.321,36.035,36.615,41.205,4.591,295.7,544.9,290.9
2023-12-06T04:42:07,2420,42.8014,5.9826,4330,272,186.205,57.042,13.320,36.051,36.631,41.216,4.585,295.7,544.9,290.9
2023-12-06T04:45:07,2420,42.8014,5.9826,4330,272,186.310,57.076,13.321,36.044,36.624,41.215,4.591,295.9,544.8,290.9
2023-12-06T04:48:07,2420,42.8014,5.9826,4330,272,186.353,57.094,13.325,36.039,36.619,41.210,4.591,295.6,544.9,290.7
2023-12-06T04:51:07,2420,42.8014,5.9826,4330,272,186.289,57.068,13.320,36.046,36.626,41.221,4.595,295.8,544.9,290.9
2023-12-06T04:54:07,2420,42.8014,5.9826,4330,272,186.392,57.098,13.319,36.040,36.620,41.213,4.592,295.7,544.8,290.9
2023-12-06T04:57:08,2420,42.8014,5.9826,4330,272,186.276,57.063,13.319,36.047,36.627,41.215,4.588,295.7,544.8,290.9
2023-12-06T05:00:08,2420,42.8014,5.9826,4330,272,186.184,57.040,13.323,36.051,36.631,41.226,4.595,295.8,544.8,290.8
2023-12-06T05:03:07,2420,42.8014,5.9826,4330,272,186.368,57.089,13.318,36.042,36.622,41.215,4.592,295.8,544.9,291.0
2023-12-06T05:06:07,2420,42.8014,5.9826,4330,272,186.325,57.077,13.318,36.045,36.625,41.216,4.592,295.7,544.9,291.0
2023-12-06T05:09:07,2420,42.8014,5.9826,4330,272,186.384,57.092,13.316,36.041,36.621,41.213,4.591,295.7,544.9,291.0
2023-12-06T05:12:08,2420,42.8014,5.9826,4330,272,186.382,57.091,13.316,36.042,36.622,41.216,4.594,295.7,544.9,291.0
2023-12-06T05:15:08,2420,42.8014,5.9826,4330,272,186.054,56.994,13.319,36.062,36.642,41.230,4.588,295.8,544.9,290.9
2023-12-06T05:18:08,2420,42.8014,5.9826,4330,272,186.529,57.138,13.318,36.032,36.612,41.203,4.591,295.8,544.9,291.0
2023-12-06T05:21:08,2420,42.8014,5.9826,4330,272,186.320,57.079,13.321,36.044,36.624,41.212,4.588,295.7,544.8,290.9
2023-12-06T05:24:08,2420,42.8014,5.9826,4330,272,186.099,57.007,13.318,36.059,36.639,41.227,4.588,295.7,544.9,291.0
2023-12-06T05:27:08,2420,42.8014,5.9826,4330,272,186.246,57.053,13.318,36.050,36.630,41.222,4.592,295.8,544.9,291.0
2023-12-06T05:30:08,2420,42.8014,5.9826,4330,272,186.320,57.077,13.319,36.044,36.624,41.215,4.591,295.8,544.9,290.9
2023-12-06T05:33:07,2420,42.8014,5.9826,4330,272,186.269,57.058,13.317,36.049,36.629,41.216,4.587,295.7,544.9,291.0
2023-12-06T05:36:07,2420,42.8014,5.9826,4330,272,186.249,57.053,13.318,36.050,36.630,41.220,4.590,295.8,544.9,291.0
2023-12-06T05:39:07,2420,42.8014,5.9826,4330,272,186.392,57.097,13.318,36.040,36.620,41.211,4.590,295.8,544.8,291.0
2023-12-06T05:42:07,2420,42.8014,5.9826,4330,272,186.206,57.042,13.320,36.052,36.631,41.219,4.587,295.7,544.8,290.9
2023-12-06T05:45:07,2420,42.8014,5.9826,4330,272,186.189,57.035,13.319,36.053,36.633,41.220,4.587,295.7,544.9,290.9
2023-12-06T05:48:07,2420,42.8014,5.9826,4330,272,186.516,57.135,13.318,36.033,36.613,41.207,4.595,295.7,544.9,291.0
2023-12-06T05:51:08,2420,42.8014,5.9826,4330,272,186.185,57.040,13.323,36.051,36.631,41.225,4.593,295.7,544.9,290.8
2023-12-06T05:54:08,2420,42.8014,5.9826,4330,272,186.368,57.090,13.319,36.042,36.622,41.211,4.589,295.8,544.9,290.9
2023-12-06T05:57:08,2420,42.8014,5.9826,4330,272,186.200,57.043,13.322,36.051,36.631,41.222,4.591,295.7,544.8,290.8
2023-12-06T06:00:08,2420,42.8014,5.9826,4330,272,186.315,57.076,13.320,36.044,36.624,41.219,4.595,295.8,544.8,290.9
2023-12-06T06:03:07,2420,42.8014,5.9826,4330,272,186.026,56.988,13.320,36.063,36.643,41.232,4.590,295.8,544.9,290.9
2023-12-06T06:06:07,2420,42.8014,5.9826,4330,272,186.353,57.092,13.324,36.040,36.620,41.212,4.592,295.8,544.9,290.8
2023-12-06T06:09:07,2420,42.8014,5.9826,4330,272,186.224,57.052,13.323,36.048,36.628,41.218,4.590,295.8,544.9,290.8
2023-12-06T06:12:07,2420,42.8014,5.9826,4330,272,186.414,57.112,13.325,36.036,36.616,41.209,4.594,295.8,544.9,290.7
2023-12-06T06:15:07,2420,42.8014,5.9826,4330,272,186.164,57.036,13.325,36.052,36.632,41.223,4.591,295.7,544.8,290.7
2023-12-06T06:18:07,2420,42.8014,5.9826,4330,272,186.216,57.052,13.325,36.048,36.628,41.214,4.585,295.8,544.8,290.7
2023-12-06T06:21:07,2420,42.8014,5.9826,4330,272,186.225,57.056,13.326,36.047,36.627,41.218,4.590,295.8,544.9,290.7
2023-12-06T06:24:08,2420,42.8014,5.9826,4330,272,186.400,57.106,13.323,36.037,36.617,41.209,4.593,295.8,544.8,290.8
2023-12-06T06:27:08,2420,42.8014,5.9826,4330,272,185.917,56.960,13.325,36.068,36.647,41.235,4.587,295.8,544.8,290.7
2023-12-06T06:30:08,2420,42.8014,5.9826,4330,272,186.357,57.100,13.329,36.037,36.617,41.208,4.591,295.8,544.8,290.6
2023-12-06T06:33:07,2420,42.8014,5.9826,4330,272,186.361,57.104,13.331,36.036,36.616,41.209,4.593,295.8,544.9,290.5
2023-12-06T06:36:07,2420,42.8014,5.9826,4330,272,186.128,57.038,13.335,36.050,36.630,41.216,4.587,295.8,544.8,290.4
2023-12-06T06:39:07,2420,42.8014,5.9826,4330,272,185.995,56.995,13.333,36.059,36.639,41.226,4.587,295.8,544.8,290.5
2023-12-06T06:42:07,2420,42.8014,5.9826,4330,272,186.138,57.036,13.331,36.050,36.630,41.224,4.593,295.7,544.8,290.5
2023-12-06T06:45:08,2420,42.8014,5.9826,4330,272,186.329,57.089,13.327,36.040,36.620,41.216,4.596,295.8,544.8,290.7
2023-12-06T06:48:08,2420,42.8014,5.9826,4330,272,186.336,57.092,13.327,36.040,36.620,41.216,4.596,295.9,544.8,290.7
2023-12-06T06:51:08,2420,42.8014,5.9826,4330,272,185.890,56.949,13.323,36.070,36.650,41.238,4.588,295.9,544.9,290.8
2023-12-06T06:54:07,2420,42.8014,5.9826,4330,272,186.225,57.049,13.320,36.050,36.630,41.220,4.591,295.7,544.9,290.9
2023-12-06T06:57:07,2420,42.8014,5.9826,4330,272,186.151,57.027,13.321,36.054,36.634,41.229,4.595,295.8,544.9,290.9
2023-12-06T07:00:08,2420,42.8014,5.9826,4330,272,186.303,57.077,13.324,36.043,36.623,41.215,4.592,295.9,544.9,290.8
2023-12-06T07:03:07,2420,42.8014,5.9826,4330,272,186.228,57.054,13.324,36.048,36.628,41.222,4.593,295.8,544.9,290.8
2023-12-06T07:06:07,2420,42.8014,5.9826,4330,272,186.159,57.032,13.323,36.053,36.633,41.218,4.585,295.7,544.8,290.8
2023-12-06T07:09:07,2420,42.8014,5.9826,4330,272,186.045,56.998,13.324,36.061,36.640,41.232,4.592,295.8,544.8,290.8
2023-12-06T07:12:08,2420,42.8014,5.9826,4330,272,186.320,57.084,13.325,36.041,36.621,41.215,4.594,295.8,544.8,290.7
2023-12-06T07:15:08,2420,42.8014,5.9826,4330,272,186.156,57.027,13.320,36.055,36.635,41.219,4.584,295.8,544.8,290.9
2023-12-06T07:18:08,2420,42.8014,5.9826,4330,272,186.050,57.003,13.326,36.059,36.639,41.228,4.590,295.8,544.9,290.7
2023-12-06T07:21:08,2420,42.8014,5.9826,4330,272,186.368,57.098,13.324,36.039,36.619,41.212,4.593,295.7,544.9,290.8
2023-12-06T07:24:08,2420,42.8014,5.9826,4330,272,186.038,56.995,13.323,36.061,36.641,41.228,4.587,295.9,544.9,290.8
2023-12-06T07:27:07,2420,42.8014,5.9826,4330,272,186.072,57.008,13.326,36.057,36.637,41.229,4.592,295.9,544.8,290.7
2023-12-06T07:30:07,2420,42.8014,5.9826,4330,272,186.261,57.081,13.337,36.039,36.619,41.215,4.596,295.8,544.9,290.3
2023-12-06T07:33:07,2420,42.8014,5.9826,4330,272,186.019,57.008,13.338,36.055,36.635,41.224,4.589,295.7,544.8,290.3
2023-12-06T07:36:08,2420,42.8014,5.9826,4330,272,186.117,57.027,13.329,36.053,36.633,41.223,4.590,295.9,544.9,290.6
2023-12-06T07:39:08,2420,42.8014,5.9826,4330,272,185.902,56.956,13.325,36.069,36.648,41.236,4.587,296.0,544.8,290.7
2023-12-06T07:42:08,2420,42.8014,5.9826,4330,272,185.848,56.940,13.326,36.072,36.652,41.240,4.588,295.8,544.8,290.7
2023-12-06T07:45:08,2420,42.8014,5.9826,4330,272,186.025,57.009,13.337,36.055,36.635,41.229,4.594,295.8,544.8,290.3
2023-12-06T07:48:07,2420,42.8014,5.9826,4330,272,185.953,56.975,13.328,36.064,36.644,41.234,4.590,295.9,544.9,290.6
2023-12-06T07:51:07,2420,42.8014,5.9826,4330,272,185.874,56.957,13.333,36.067,36.647,41.232,4.585,295.9,544.9,290.5
2023-12-06T07:54:07,2420,42.8014,5.9826,4330,272,186.099,57.027,13.334,36.052,36.632,41.221,4.589,295.9,544.8,290.4
2023-12-06T07:57:07,2420,42.8014,5.9826,4330,272,186.154,57.051,13.339,36.046,36.626,41.218,4.592,295.8,544.8,290.3
2023-12-06T08:00:07,2420,42.8014,5.9826,4330,272,185.943,56.985,13.338,36.060,36.640,41.231,4.591,295.7,544.9,290.3
2023-12-06T08:03:07,2420,42.8014,5.9826,4330,272,185.890,56.952,13.325,36.070,36.650,41.237,4.587,296.0,544.9,290.7
2023-12-06T08:06:07,2420,42.8014,5.9826,4330,272,186.090,57.017,13.328,36.055,36.635,41.225,4.590,295.9,544.9,290.6
2023-12-06T08:09:07,2420,42.8014,5.9826,4330,272,185.859,56.952,13.333,36.068,36.648,41.237,4.589,295.9,544.9,290.5
2023-12-06T08:12:07,2420,42.8014,5.9826,4330,272,186.004,57.000,13.335,36.057,36.637,41.228,4.592,295.8,544.9,290.4
2023-12-06T08:15:07,2420,42.8014,5.9826,4330,272,185.940,56.966,13.324,36.067,36.647,41.239,4.592,295.8,544.9,290.8
2023-12-06T08:18:07,2420,42.8014,5.9826,4330,272,185.928,56.961,13.323,36.068,36.648,41.237,4.589,295.8,544.9,290.8
2023-12-06T08:21:07,2420,42.8014,5.9826,4330,272,186.312,57.081,13.325,36.043,36.623,41.217,4.594,295.9,544.8,290.7
2023-12-06T08:24:07,2420,42.8014,5.9826,4330,272,185.866,56.957,13.335,36.066,36.646,41.236,4.590,295.8,544.9,290.4
2023-12-06T08:27:07,2420,42.8014,5.9826,4330,272,185.838,56.936,13.325,36.073,36.653,41.245,4.591,295.9,544.8,290.7
2023-12-06T08:30:08,2420,42.8014,5.9826,4330,272,186.038,57.004,13.330,36.058,36.638,41.230,4.592,295.9,544.9,290.6
2023-12-06T08:33:07,2420,42.8014,5.9826,4330,272,186.122,57.027,13.328,36.053,36.633,41.220,4.587,295.9,544.8,290.6
2023-12-06T08:36:07,2420,42.8014,5.9826,4330,272,186.045,57.010,13.334,36.056,36.635,41.227,4.591,295.9,544.9,290.4
2023-12-06T08:39:07,2420,42.8014,5.9826,4330,272,185.829,56.938,13.329,36.072,36.651,41.238,4.587,295.9,544.9,290.6
2023-12-06T08:42:08,2420,42.8014,5.9826,4330,272,186.064,56.997,13.319,36.061,36.641,41.227,4.586,295.9,544.9,290.9
2023-12-06T08:45:08,2420,42.8014,5.9826,4330,272,186.113,57.010,13.317,36.059,36.639,41.231,4.591,295.9,544.9,291.0
2023-12-06T08:48:08,2420,42.8014,5.9826,4330,272,185.919,56.952,13.318,36.071,36.651,41.237,4.586,295.8,544.9,291.0
2023-12-06T08:51:08,2420,42.8014,5.9826,4330,272,186.144,57.031,13.326,36.053,36.633,41.226,4.594,295.8,544.8,290.7
2023-12-06T08:54:07,2420,42.8014,5.9826,4330,272,186.309,57.081,13.325,36.042,36.622,41.212,4.589,295.8,544.8,290.7
2023-12-06T08:57:07,2420,42.8014,5.9826,4330,272,186.217,57.060,13.331,36.045,36.625,41.212,4.587,295.8,544.9,290.5
2023-12-06T09:00:07,2420,42.8014,5.9826,4330,272,186.148,57.037,13.330,36.051,36.631,41.220,4.590,295.8,544.9,290.6
2023-12-06T09:03:07,2420,42.8014,5.9826,4330,272,186.040,57.003,13.329,36.058,36.638,41.231,4.593,295.9,544.9,290.6
2023-12-06T09:06:07,2420,42.8014,5.9826,4330,272,186.025,56.997,13.328,36.059,36.639,41.229,4.590,295.9,544.9,290.6
2023-12-06T09:09:07,2420,42.8014,5.9826,4330,272,186.156,57.019,13.313,36.058,36.638,41.225,4.587,295.9,544.9,291.1
2023-12-06T09:18:09,2420,42.8014,5.9826,4330,272,186.120,56.994,13.302,36.066,36.646,41.237,4.592,296.0,545.5,291.5
2023-12-06T09:21:09,2420,42.8014,5.9826,4330,272,185.995,56.978,13.321,36.065,36.645,41.235,4.590,295.9,544.5,290.9
2023-12-06T09:24:09,2420,42.8014,5.9826,4330,272,186.080,57.029,13.340,36.050,36.630,41.221,4.591,295.9,544.4,290.2
2023-12-06T09:27:09,2420,42.8014,5.9826,4330,272,186.160,57.055,13.341,36.044,36.624,41.217,4.592,295.8,544.4,290.2
2023-12-06T09:30:09,2420,42.8014,5.9826,4330,272,186.036,56.991,13.321,36.062,36.642,41.234,4.592,295.8,544.4,290.9
2023-12-06T09:33:09,2420,42.8014,5.9826,4330,272,186.071,57.007,13.325,36.058,36.637,41.228,4.590,295.8,544.3,290.7
2023-12-06T09:36:09,2420,42.8014,5.9826,4330,272,186.280,57.071,13.324,36.045,36.625,41.216,4.591,295.8,544.3,290.8
2023-12-06T09:39:09,2420,42.8014,5.9826,4330,272,186.052,57.003,13.326,36.059,36.639,41.230,4.591,295.7,544.3,290.7
2023-12-06T09:42:09,2420,42.8014,5.9826,4330,272,186.227,57.059,13.328,36.046,36.626,41.214,4.588,295.8,544.3,290.6
2023-12-06T09:45:09,2420,42.8014,5.9826,4330,272,185.823,56.956,13.344,36.065,36.644,41.234,4.589,295.7,544.3,290.1
2023-12-06T09:48:09,2420,42.8014,5.9826,4330,272,186.198,57.060,13.336,36.045,36.625,41.218,4.593,295.8,544.3,290.4
2023-12-06T09:51:09,2420,42.8014,5.9826,4330,272,185.910,56.980,13.342,36.060,36.640,41.233,4.593,295.8,544.3,290.2
2023-12-06T09:54:09,2420,42.8014,5.9826,4330,272,186.078,57.007,13.323,36.058,36.638,41.225,4.586,295.8,544.4,290.8
2023-12-06T09:57:09,2420,42.8014,5.9826,4330,272,186.404,57.105,13.322,36.038,36.618,41.206,4.588,295.8,544.3,290.8
2023-12-06T10:00:09,2420,42.8014,5.9826,4330,272,186.149,57.040,13.332,36.050,36.630,41.217,4.588,295.7,544.3,290.5
2023-12-06T10:03:09,2420,42.8014,5.9826,4330,272,186.201,57.047,13.325,36.050,36.630,41.219,4.589,295.8,544.3,290.7
2023-12-06T10:06:09,2420,42.8014,5.9826,4330,272,186.258,57.057,13.319,36.049,36.629,41.216,4.587,295.7,544.4,290.9